GW1238 Weather Reports


time (UTC)temp
F
wind
direction
speed
knots
gust
knots
rain 1hr
in
rain 24hr
in
rain mn
in
humidity
%
barometer
mb
20260506232939 65 217 0.0 0.9 0.12 1.50 1.50 99 1016.2
20260506232435 65 164 0.0 0.9 0.17 1.49 1.49 99 1016.3
20260506231931 65 194 1.7 3.5 0.47 1.47 1.47 99 1016.8
20260506231429 65 196 1.7 1.7 0.50 1.46 1.46 99 1016.2
20260506230926 65 107 0.0 1.7 0.07 1.39 1.39 99 1016.5
20260506230422 66 204 2.6 3.5 0.00 1.38 1.38 99 1015.6
20260506225920 65 171 2.6 3.5 0.12 1.38 1.38 99 1015.4
20260506225417 65 194 0.0 0.9 0.24 1.38 1.38 99 1015.5
20260506224914 65 5 0.0 1.7 0.17 1.36 1.36 99 1015.8
20260506224411 66 192 3.5 6.1 0.17 1.34 1.34 99 1015.8
20260506223907 65 159 2.6 2.6 0.24 1.33 1.33 99 1015.2
20260506223402 65 194 0.9 2.6 0.42 1.31 1.31 99 1015.4
20260506222859 65 148 0.9 0.9 0.31 1.28 1.28 99 1015.5
20260506222355 65 191 0.9 1.7 0.54 1.24 1.24 99 1015.7
20260506221853 65 57 0.0 0.9 0.78 1.23 1.23 99 1015.2
20260506221350 65 319 0.9 2.6 0.40 1.14 1.14 99 1016.1
20260506220848 66 180 3.5 3.5 0.54 1.10 1.10 99 1015.7
20260506220343 65 182 0.9 2.6 0.42 1.06 1.06 99 1015.4
20260506215841 65 187 0.0 0.9 0.12 1.01 1.01 99 1015.6
20260506215336 65 189 0.0 0.0 0.00 0.99 0.99 99 1015.1
20260506214832 65 171 0.9 0.9 0.05 0.99 0.99 99 1015.2
20260506214329 65 182 0.0 0.9 0.05 0.99 0.99 98 1015.4
20260506213827 65 286 0.9 1.7 0.00 0.98 0.98 98 1015.2
20260506213324 65 222 0.0 1.7 0.00 0.98 0.98 98 1014.9
20260506212822 65 151 0.0 0.0 0.00 0.98 0.98 98 1014.9
20260506212317 66 266 0.9 0.9 0.00 0.98 0.98 98 1015.1
20260506211812 66 192 0.0 2.6 0.12 0.98 0.98 98 1015.1
20260506211308 66 179 1.7 1.7 0.12 0.98 0.98 98 1015.4
20260506210806 66 192 0.0 1.7 0.12 0.96 0.96 98 1016.1
20260506210303 66 274 0.9 2.6 0.12 0.96 0.96 98 1015.8
20260506205800 66 91 0.0 2.6 0.00 0.94 0.94 98 1015.8
20260506205256 66 208 0.9 2.6 0.00 0.94 0.94 98 1016.0
20260506204752 66 160 0.0 0.9 0.07 0.94 0.94 98 1015.3
20260506204250 66 172 0.0 1.7 0.07 0.94 0.94 98 1015.5
20260506203748 66 129 0.0 3.5 0.00 0.93 0.93 97 1015.7
20260506203245 67 256 0.9 1.7 0.00 0.93 0.93 97 1016.2
20260506202742 67 180 2.6 2.6 0.12 0.93 0.93 97 1015.9
20260506202238 67 199 3.5 5.2 0.19 0.92 0.92 97 1015.5
20260506201735 67 206 0.0 6.1 0.12 0.91 0.91 97 1016.4
20260506201232 67 156 0.0 0.9 0.00 0.89 0.89 97 1016.2
20260506200729 67 255 0.9 1.7 0.00 0.89 0.89 97 1015.7
20260506200226 68 281 0.0 2.6 0.07 0.89 0.89 97 1015.4
20260506195722 68 188 1.7 2.6 0.07 0.89 0.89 97 1015.6
20260506195218 68 181 0.0 1.7 0.00 0.88 0.88 97 1015.9
20260506194715 69 224 0.9 5.2 0.00 0.88 0.88 98 1015.8
20260506194212 69 212 1.7 6.1 0.00 0.88 0.88 98 1016.0
20260506193710 69 186 2.6 5.2 0.00 0.88 0.88 98 1015.8
20260506193207 69 205 1.7 7.0 0.12 0.88 0.88 98 1016.3
20260506192704 69 202 2.6 2.6 0.24 0.88 0.88 98 1016.4
20260506192200 69 184 0.0 0.9 0.12 0.86 0.86 98 1016.1
20260506191657 68 294 0.0 1.7 0.00 0.84 0.84 98 1016.2
20260506191153 69 196 1.7 2.6 0.05 0.84 0.84 98 1016.7
20260506190650 69 186 3.5 5.2 0.00 0.83 0.83 98 1016.0
20260506190147 69 177 3.5 5.2 0.00 0.83 0.83 98 1015.8
20260506185644 69 188 3.5 5.2 0.00 0.83 0.83 98 1016.3
20260506185140 69 153 2.6 3.5 0.07 0.83 0.83 97 1015.8
20260506184638 69 163 2.6 3.5 0.05 0.82 0.82 97 1015.9
20260506184135 69 170 2.6 5.2 0.12 0.82 0.82 97 1016.6
20260506183631 69 175 5.2 6.1 0.12 0.81 0.81 96 1016.9
20260506183127 69 172 4.3 5.2 0.24 0.80 0.80 96 1016.7
20260506182625 69 190 1.7 3.5 0.50 0.79 0.79 96 1016.7
20260506182122 69 161 0.9 1.7 0.42 0.76 0.76 95 1016.4
20260506181620 69 180 0.0 1.7 0.17 0.71 0.71 94 1017.7
20260506181117 70 274 0.9 1.7 0.12 0.69 0.69 94 1017.3
20260506180613 70 258 0.9 3.5 0.07 0.68 0.68 93 1017.1
20260506180110 70 155 0.0 2.6 0.00 0.67 0.67 93 1017.2
20260506175606 71 187 5.2 7.0 0.00 0.67 0.67 93 1016.9
20260506175102 71 203 5.2 6.1 0.00 0.67 0.67 93 1017.2
20260506174601 71 198 5.2 6.1 0.00 0.67 0.67 92 1017.0
20260506174057 71 187 4.3 5.2 0.00 0.67 0.67 92 1017.1
20260506173555 71 202 4.3 6.1 0.00 0.67 0.67 92 1016.9
20260506173051 71 310 0.9 2.6 0.00 0.67 0.67 93 1017.0
20260506172549 71 196 3.5 5.2 0.00 0.67 0.67 93 1016.6
20260506172040 71 211 2.6 6.1 0.00 0.67 0.67 93 1016.5
20260506171537 70 169 1.7 6.1 0.00 0.67 0.67 93 1016.6
20260506171035 70 201 2.6 3.5 0.00 0.67 0.67 93 1016.6
20260506170532 71 192 4.3 5.2 0.00 0.67 0.67 93 1016.6
20260506170029 70 190 5.2 6.1 0.00 0.67 0.67 93 1016.2
20260506165527 71 191 6.1 7.8 0.00 0.67 0.67 92 1016.3
20260506165023 70 197 4.3 5.2 0.00 0.67 0.67 93 1016.5
20260506164520 70 192 6.1 7.8 0.00 0.67 0.67 93 1016.6
20260506164018 70 178 7.0 7.8 0.00 0.67 0.67 94 1016.1
20260506163513 69 193 5.2 8.7 0.00 0.67 0.67 96 1016.2
20260506163009 69 186 7.0 7.8 0.00 0.67 0.67 96 1016.3
20260506162506 69 189 7.8 8.7 0.00 0.67 0.67 97 1016.4
20260506161957 69 174 7.8 8.7 0.00 0.67 0.67 98 1015.9
20260506161455 68 197 6.1 7.0 0.00 0.67 0.67 98 1016.2
20260506160952 68 187 6.1 8.7 0.00 0.67 0.67 98 1016.2
20260506160450 68 172 7.0 7.8 0.00 0.67 0.67 99 1016.3
20260506155947 68 181 7.0 7.8 0.00 0.67 0.67 99 1016.3
20260506155445 67 190 7.0 8.7 0.00 0.67 0.67 99 1016.3
20260506153616 67 179 6.1 7.0 0.00 0.67 0.67 99 1016.2
20260506153114 67 196 4.3 7.0 0.00 0.67 0.67 99 1016.7
20260506152611 67 188 3.5 3.5 0.00 0.67 0.67 99 1017.1
20260506152108 66 196 1.7 6.1 0.00 0.67 0.67 99 1017.3
20260506151606 66 190 3.5 6.1 0.00 0.67 0.67 99 1017.2
20260506151103 66 195 3.5 5.2 0.00 0.67 0.67 99 1017.2
20260506150600 66 202 3.5 3.5 0.00 0.67 0.67 99 1017.1
20260506150057 66 186 1.7 3.5 0.05 0.67 0.67 99 1017.2
20260506145553 65 149 5.2 6.1 0.05 0.67 0.67 99 1016.4
20260506145051 65 131 5.2 6.1 0.07 0.66 0.66 99 1016.0
20260506144547 66 135 3.5 3.5 0.14 0.66 0.66 99 1017.1
20260506144044 65 146 3.5 5.2 0.07 0.65 0.65 99 1017.4
20260506143542 66 172 3.5 5.2 0.12 0.64 0.64 99 1017.9
20260506143041 65 188 5.2 5.2 0.24 0.64 0.64 99 1017.9
20260506142538 65 177 1.7 2.6 0.35 0.61 0.61 99 1017.9
20260506142036 65 164 0.0 0.0 1.06 0.60 0.60 99 1017.6
20260506141533 65 91 1.7 1.7 1.04 0.55 0.55 99 1017.4
20260506141032 65 208 0.0 1.7 0.42 0.42 0.42 99 1018.5
20260506140529 65 149 0.0 0.0 0.47 0.38 0.38 99 1018.0
20260506140026 65 59 0.0 0.0 0.42 0.34 0.34 99 1018.0
20260506135523 65 232 0.0 0.0 0.31 0.30 0.30 99 1017.9
20260506135019 64 259 0.0 0.0 0.17 0.27 0.27 99 1017.7
20260506134515 64 335 0.0 1.7 0.12 0.25 0.25 99 1017.7
20260506134012 64 290 0.9 1.7 0.19 0.24 0.24 99 1017.5
20260506133509 65 289 1.7 2.6 0.19 0.22 0.22 98 1017.4
20260506133005 65 265 1.7 2.6 0.24 0.21 0.21 98 1017.7
20260506132503 65 338 0.0 1.7 0.24 0.19 0.19 98 1017.2
20260506132000 65 286 0.9 1.7 0.12 0.17 0.17 98 1017.1
20260506131457 65 265 0.9 1.7 0.07 0.15 0.15 97 1017.0
20260506130953 65 281 0.9 2.6 0.12 0.15 0.15 97 1017.1
20260506130450 65 159 0.0 2.6 0.17 0.14 0.14 97 1016.5
20260506125948 65 227 0.9 1.7 0.42 0.13 0.13 97 1016.9
20260506125446 65 174 1.7 6.1 0.40 0.10 0.10 96 1016.7
20260506124944 65 187 0.0 1.7 0.31 0.06 0.06 96 1016.6
20260506124441 65 243 2.6 3.5 0.14 0.03 0.03 96 1016.4
20260506123939 65 176 1.7 2.6 0.00 0.01 0.01 96 1015.8
20260506123437 65 250 0.0 0.0 0.00 0.01 0.01 96 1016.2
20260506122934 65 285 0.0 0.0 0.00 0.01 0.01 96 1015.8
20260506122430 65 274 0.9 1.7 0.00 0.01 0.01 95 1015.9
20260506121929 65 275 0.9 1.7 0.00 0.01 0.01 95 1015.8
20260506121426 65 314 0.9 1.7 0.00 0.01 0.01 95 1015.7
20260506120923 65 282 1.7 1.7 0.00 0.01 0.01 94 1015.8
20260506120420 65 279 1.7 1.7 0.00 0.01 0.01 94 1015.6
20260506115917 65 182 0.0 1.7 0.05 0.01 0.01 93 1015.6
20260506115415 66 225 0.0 0.9 0.05 0.01 0.01 92 1015.6
20260506114913 66 225 0.0 0.9 0.00 0.00 0.00 91 1015.3
20260506114410 66 148 0.0 0.9 0.00 0.00 0.00 90 1015.4
20260506113909 66 219 0.9 0.9 0.00 0.00 0.00 90 1015.5
20260506113406 67 269 0.0 1.7 0.00 0.00 0.00 89 1015.4
20260506112903 67 265 0.9 1.7 0.00 0.00 0.00 89 1015.3
20260506112400 67 171 0.0 3.5 0.00 0.00 0.00 88 1015.3
20260506111857 67 194 1.7 3.5 0.00 0.00 0.00 88 1015.1
20260506111355 67 241 0.9 2.6 0.00 0.00 0.00 88 1015.2
20260506110853 67 163 0.0 1.7 0.00 0.00 0.00 87 1015.3
20260506110350 67 231 1.7 1.7 0.00 0.00 0.00 87 1015.3
20260506105847 68 210 0.9 3.5 0.00 0.00 0.00 86 1015.3
20260506105343 68 201 3.5 3.5 0.00 0.00 0.00 85 1014.8
20260506104841 67 190 0.9 3.5 0.00 0.00 0.00 85 1014.9
20260506104338 68 271 1.7 2.6 0.00 0.00 0.00 85 1014.7
20260506103836 68 169 0.0 6.1 0.00 0.00 0.00 85 1014.9
20260506103333 69 197 2.6 6.1 0.00 0.00 0.00 85 1014.8
20260506102830 68 178 5.2 5.2 0.00 0.00 0.00 84 1014.5
20260506102328 68 190 2.6 3.5 0.00 0.00 0.00 84 1014.4
20260506101825 68 177 4.3 5.2 0.00 0.00 0.00 83 1014.4
20260506101321 68 224 2.6 5.2 0.00 0.00 0.00 82 1014.4
20260506100819 69 313 0.9 2.6 0.00 0.00 0.00 81 1014.8
20260506100317 69 181 2.6 5.2 0.00 0.00 0.00 81 1014.6
20260506095815 69 192 5.2 6.1 0.00 0.00 0.00 81 1014.4
20260506095312 69 192 5.2 7.0 0.00 0.00 0.00 81 1014.4
20260506094809 69 180 7.0 8.7 0.00 0.00 0.00 81 1013.9
20260506094307 69 186 7.8 8.7 0.00 0.00 0.00 81 1014.0
20260506093805 69 177 6.1 7.8 0.00 0.00 0.00 81 1014.2
20260506093302 69 179 6.1 7.0 0.00 0.00 0.00 81 1014.5
20260506092800 69 189 5.2 7.0 0.00 0.00 0.00 80 1014.5
20260506092257 69 199 2.6 6.1 0.00 0.00 0.00 80 1014.4
20260506091754 69 179 4.3 6.1 0.00 0.00 0.00 80 1014.4
20260506091252 69 228 1.7 3.5 0.00 0.00 0.00 78 1014.2
20260506090750 69 184 1.7 3.5 0.00 0.00 0.00 77 1014.5
20260506090246 69 244 2.6 5.2 0.00 0.00 0.00 78 1014.6
20260506085743 69 186 2.6 6.1 0.00 0.00 0.00 78 1014.6
20260506085239 69 224 2.6 5.2 0.00 0.00 0.00 78 1014.5
20260506084736 70 188 5.2 7.0 0.00 0.00 0.00 79 1014.4
20260506084232 69 185 6.1 8.7 0.00 0.00 0.00 77 1014.4
20260506083730 70 187 6.1 8.7 0.00 0.00 0.00 80 1014.1
20260506083228 70 179 8.7 9.6 0.00 0.00 0.00 77 1013.8
20260506082725 70 178 7.8 8.7 0.00 0.00 0.00 78 1013.9
20260506082220 70 188 7.0 8.7 0.00 0.00 0.00 77 1014.1
20260506081718 70 178 7.8 8.7 0.00 0.00 0.00 77 1013.9
20260506081215 70 175 7.0 7.8 0.00 0.00 0.00 78 1014.0
20260506080713 70 180 7.0 7.8 0.00 0.00 0.00 76 1013.7
20260506080209 70 184 7.0 8.7 0.00 0.00 0.00 76 1013.7
20260506073154 70 188 6.1 8.7 0.00 0.00 0.00 74 1013.8
20260506072650 70 174 7.8 8.7 0.00 0.00 0.00 74 1013.9
20260506072148 71 179 7.0 7.0 0.00 0.00 0.00 75 1013.9
20260506071645 70 180 7.0 7.8 0.00 0.00 0.00 74 1013.8
20260506071143 70 184 7.8 8.7 0.00 0.00 0.00 72 1013.7
20260506070640 71 182 7.8 8.7 0.00 0.00 0.00 75 1013.9
20260506070137 71 181 7.0 8.7 0.00 0.00 0.00 72 1013.7
20260506062114 71 182 6.1 7.0 0.00 0.00 0.00 73 1014.5
20260506061610 71 187 6.1 7.0 0.00 0.00 0.00 72 1014.5
20260506061108 71 192 5.2 7.0 0.00 0.00 0.00 72 1014.7
20260506060606 71 183 5.2 7.8 0.00 0.00 0.00 72 1014.7
20260506051034 71 187 3.5 6.1 0.00 0.00 0.00 68 1015.0
20260506050532 71 192 4.3 5.2 0.00 0.00 0.00 68 1015.0
20260506045023 72 195 3.5 3.5 0.00 0.00 0.00 68 1015.1
20260506044521 71 199 2.6 5.2 0.00 0.00 0.00 66 1015.2
20260506044017 72 248 1.7 6.1 0.00 0.00 0.00 66 1015.2
20260506043514 72 196 3.5 5.2 0.00 0.00 0.00 67 1015.3
20260506043013 72 190 4.3 6.1 0.00 0.00 0.00 66 1015.1
20260506042512 72 181 3.5 6.1 0.00 0.00 0.00 67 1015.1
20260506042009 72 186 4.3 6.1 0.00 0.00 0.00 68 1015.2
20260506041508 72 184 4.3 5.2 0.00 0.00 0.00 66 1015.0
20260506041004 72 186 5.2 6.1 0.00 0.00 0.00 65 1015.2
20260506040502 72 181 5.2 6.1 0.00 0.00 0.00 66 1015.2
20260506035957 72 188 4.3 6.1 0.00 0.00 0.00 67 1015.1
20260506035455 72 184 5.2 6.1 0.00 0.00 0.00 66 1015.2
20260506034951 72 188 5.2 7.8 0.00 0.00 0.00 65 1015.1
20260506034449 72 201 4.3 6.1 0.00 0.00 0.00 67 1015.1
20260506033946 72 186 5.2 6.1 0.00 0.00 0.00 63 1015.3
20260506033443 72 188 3.5 5.2 0.00 0.00 0.00 62 1015.5
20260506032939 72 215 1.7 5.2 0.00 0.00 0.00 63 1015.8
20260506032437 72 189 2.6 5.2 0.00 0.00 0.00 65 1015.5
20260506031933 73 180 5.2 6.1 0.00 0.00 0.00 68 1015.6
20260506031431 73 217 4.3 6.1 0.00 0.00 0.00 66 1015.3
20260506030929 73 199 4.3 6.1 0.00 0.00 0.00 64 1015.5
20260506030426 73 175 5.2 6.1 0.00 0.00 0.00 64 1015.2
20260506025923 73 184 3.5 3.5 0.00 0.00 0.00 65 1015.3
20260506025420 73 191 4.3 5.2 0.00 0.00 0.00 66 1015.6
20260506024916 73 233 0.9 3.5 0.00 0.00 0.00 60 1015.9
20260506024414 73 199 3.5 5.2 0.00 0.00 0.00 60 1015.8
20260506023909 73 201 3.5 5.2 0.00 0.00 0.00 60 1015.8
20260506023407 73 194 4.3 6.1 0.00 0.00 0.00 60 1015.8
20260506022903 73 192 1.7 6.1 0.00 0.00 0.00 61 1015.6
20260506022401 73 189 5.2 6.1 0.00 0.00 0.00 61 1015.1
20260506021859 72 197 6.1 7.0 0.00 0.00 0.00 62 1015.1
20260506021355 73 199 4.3 6.1 0.00 0.00 0.00 64 1015.0
20260506020852 72 203 2.6 6.1 0.00 0.00 0.00 61 1015.0
20260506020350 72 203 3.5 3.5 0.00 0.00 0.00 62 1015.1
20260506015847 72 187 5.2 6.1 0.00 0.00 0.00 61 1014.8
20260506015345 72 215 3.5 6.1 0.00 0.00 0.00 62 1014.9
20260506014841 72 187 5.2 6.1 0.00 0.00 0.00 62 1015.0
20260506014338 72 214 1.7 5.2 0.00 0.00 0.00 63 1014.8
20260506013835 72 201 2.6 5.2 0.00 0.00 0.00 63 1014.8
20260506013332 73 192 3.5 6.1 0.00 0.00 0.00 66 1014.7
20260506012829 73 184 4.3 5.2 0.00 0.00 0.00 66 1014.9
20260506012326 73 186 4.3 6.1 0.00 0.00 0.00 62 1014.8
20260506011823 73 186 4.3 6.1 0.00 0.00 0.00 62 1014.7
20260506011319 73 193 3.5 6.1 0.00 0.00 0.00 61 1014.6
20260506010817 73 197 3.5 7.0 0.00 0.00 0.00 64 1014.6
20260506010315 73 187 5.2 6.1 0.00 0.00 0.00 64 1014.7
20260506005811 73 188 5.2 7.0 0.00 0.00 0.00 65 1014.4
20260506005308 73 179 6.1 7.0 0.00 0.00 0.00 61 1014.5
20260506004805 73 182 5.2 7.8 0.00 0.00 0.00 62 1014.4
20260506004302 73 177 6.1 6.1 0.00 0.00 0.00 63 1014.4
20260506003758 73 176 5.2 6.1 0.00 0.00 0.00 62 1014.5
20260506003254 73 182 4.3 5.2 0.00 0.00 0.00 61 1014.5
20260506002751 73 182 3.5 3.5 0.00 0.00 0.00 66 1014.4
20260506002247 73 188 3.5 5.2 0.00 0.00 0.00 64 1014.6
20260506001743 73 193 1.7 5.2 0.00 0.00 0.00 60 1014.9
20260506001241 73 198 3.5 3.5 0.00 0.00 0.00 60 1014.7
20260506000737 72 206 0.9 3.5 0.00 0.00 0.00 57 1015.1
20260506000235 71 198 0.0 1.7 0.00 0.00 0.00 60 1014.9
20260505235732 71 180 0.9 1.7 0.00 0.00 0.00 62 1014.9
20260505235230 71 301 0.0 0.9 0.00 0.00 0.00 62 1014.9
20260505234726 71 338 0.0 2.6 0.00 0.00 0.00 62 1014.8
20260505234224 71 219 0.0 0.9 0.00 0.00 0.00 64 1014.8
20260505233720 72 16 0.0 0.9 0.00 0.00 0.00 60 1014.7